FW4803 Weather Reports


time (UTC)temp
C
wind
direction
speed
KPH
gust
KPH
rain 1hr
cm
rain 24hr
cm
rain mn
cm
humidity
%
barometer
mb
20260508115514 21 162 16.1 17.7 0.00 0.00 0.00 41 1016.9
20260508115014 21 162 12.9 17.7 0.00 0.00 0.00 42 1017.2
20260508114513 21 195 9.7 17.7 0.00 0.00 0.00 43 1017.0
20260508114014 20 200 9.7 12.9 0.00 0.00 0.00 44 1017.1
20260508113514 20 146 11.3 12.9 0.00 0.00 0.00 45 1016.7
20260508113014 20 140 9.7 12.9 0.00 0.00 0.00 44 1016.4
20260508112514 20 178 6.4 9.7 0.00 0.00 0.00 44 1017.3
20260508112013 20 172 6.4 12.9 0.00 0.00 0.00 44 1017.4
20260508111514 20 250 4.8 12.9 0.00 0.00 0.00 44 1017.4
20260508111017 20 248 4.8 8.0 0.00 0.00 0.00 47 1017.6
20260508110514 20 215 4.8 8.0 0.00 0.00 0.00 48 1017.8
20260508110014 20 239 4.8 6.4 0.00 0.00 0.00 47 1017.7
20260508105514 20 264 4.8 6.4 0.00 0.00 0.00 46 1017.7
20260508105014 20 249 4.8 6.4 0.00 0.00 0.00 46 1017.9
20260508104514 20 250 4.8 6.4 0.00 0.00 0.00 46 1018.1
20260508104017 20 268 4.8 8.0 0.00 0.00 0.00 47 1018.2
20260508103513 20 260 4.8 8.0 0.00 0.00 0.00 46 1018.4
20260508103014 20 219 4.8 6.4 0.00 0.00 0.00 46 1018.4
20260508101513 20 201 8.0 12.9 0.00 0.00 0.00 48 1018.2
20260508101014 20 137 6.4 9.7 0.00 0.00 0.00 49 1018.3
20260508100513 20 170 8.0 8.0 0.00 0.00 0.00 50 1018.3
20260508100014 20 245 8.0 8.0 0.00 0.00 0.00 48 1018.5
20260508095014 20 255 8.0 11.3 0.00 0.00 0.00 47 1018.7
20260508094514 20 254 8.0 9.7 0.00 0.00 0.00 47 1018.9
20260508094013 20 209 6.4 9.7 0.00 0.00 0.00 46 1018.9
20260508093013 20 194 8.0 12.9 0.00 0.00 0.00 46 1018.9
20260508092514 20 183 8.0 12.9 0.00 0.00 0.00 46 1019.0
20260508092015 20 222 9.7 14.5 0.00 0.00 0.00 44 1019.0
20260508091014 20 225 6.4 12.9 0.00 0.00 0.00 48 1018.9
20260508090513 19 231 6.4 9.7 0.00 0.00 0.00 49 1019.2
20260508090014 19 216 6.4 9.7 0.00 0.00 0.00 49 1019.3
20260508085014 19 163 6.4 8.0 0.00 0.00 0.00 49 1019.2
20260508084513 18 221 4.8 8.0 0.00 0.00 0.00 48 1019.1
20260508083014 19 194 4.8 8.0 0.00 0.00 0.00 46 1019.2
20260508082014 19 214 4.8 8.0 0.00 0.00 0.00 45 1019.2
20260508081513 19 230 4.8 6.4 0.00 0.00 0.00 44 1019.4
20260508081014 19 221 6.4 9.7 0.00 0.00 0.00 44 1019.3
20260508080515 19 205 6.4 9.7 0.00 0.00 0.00 43 1019.3
20260508080015 19 157 4.8 6.4 0.00 0.00 0.00 43 1019.4
20260508075513 19 168 4.8 6.4 0.00 0.00 0.00 42 1019.5
20260508075013 19 218 6.4 6.4 0.00 0.00 0.00 42 1019.5
20260508074513 19 232 4.8 8.0 0.00 0.00 0.00 42 1019.3
20260508074013 19 163 4.8 8.0 0.00 0.00 0.00 42 1019.4
20260508073028 18 192 8.0 12.9 0.00 0.00 0.00 40 1019.4
20260508072513 18 201 9.7 12.9 0.00 0.00 0.00 39 1019.5
20260508072014 18 234 8.0 11.3 0.00 0.00 0.00 40 1019.8
20260508071514 18 237 6.4 11.3 0.00 0.00 0.00 42 1019.7
20260508071013 18 246 8.0 11.3 0.00 0.00 0.00 42 1019.8
20260508070013 18 208 6.4 8.0 0.00 0.00 0.00 40 1020.1
20260508065514 18 200 4.8 6.4 0.00 0.00 0.00 39 1020.0
20260508065013 18 256 4.8 8.0 0.00 0.00 0.00 39 1020.0
20260508064514 18 240 6.4 8.0 0.00 0.00 0.00 38 1019.8
20260508064018 18 221 4.8 8.0 0.00 0.00 0.00 39 1019.9
20260508063514 18 214 4.8 8.0 0.00 0.00 0.00 39 1019.8
20260508063014 18 216 4.8 8.0 0.00 0.00 0.00 41 1019.7
20260508062513 18 219 4.8 8.0 0.00 0.00 0.00 41 1019.6
20260508062014 18 222 4.8 6.4 0.00 0.00 0.00 42 1019.5
20260508061014 18 257 6.4 8.0 0.00 0.00 0.00 43 1019.3
20260508060513 18 255 8.0 9.7 0.00 0.00 0.00 43 1019.3
20260508060014 18 268 8.0 11.3 0.00 0.00 0.00 43 1019.0
20260508055014 18 253 3.2 6.4 0.00 0.00 0.00 44 1018.6
20260508054513 18 245 3.2 4.8 0.00 0.00 0.00 45 1018.6
20260508054013 18 231 3.2 3.2 0.00 0.00 0.00 49 1018.3
20260508053514 18 221 1.6 3.2 0.00 0.00 0.00 48 1018.3
20260508053014 18 221 1.6 3.2 0.00 0.00 0.00 47 1018.2
20260508052513 18 233 1.6 3.2 0.00 0.00 0.00 47 1017.9
20260508052014 18 235 1.6 3.2 0.00 0.00 0.00 48 1018.0
20260508051513 18 0 0.0 0.0 0.00 0.00 0.00 51 1018.0
20260508050514 18 138 1.6 3.2 0.00 0.00 0.00 48 1017.9
20260508050014 18 142 3.2 3.2 0.00 0.00 0.00 47 1017.7
20260508045513 18 149 1.6 3.2 0.00 0.00 0.00 45 1017.9
20260508045014 18 260 1.6 3.2 0.00 0.00 0.00 42 1017.8
20260508044514 18 279 3.2 3.2 0.00 0.00 0.00 42 1017.9
20260508044013 18 253 3.2 3.2 0.00 0.00 0.00 42 1017.8
20260508043513 18 206 1.6 3.2 0.00 0.00 0.00 43 1017.7
20260508043013 17 265 0.0 1.6 0.00 0.00 0.00 44 1017.3
20260508042513 17 305 1.6 3.2 0.00 0.00 0.00 44 1017.2
20260508041513 18 275 1.6 4.8 0.00 0.00 0.00 42 1017.2
20260508041013 18 258 3.2 6.4 0.00 0.00 0.00 41 1017.1
20260508040513 18 249 3.2 6.4 0.00 0.00 0.00 41 1017.1
20260508040014 18 289 1.6 3.2 0.00 0.00 0.00 42 1016.8
20260508035513 18 343 3.2 4.8 0.00 0.00 0.00 42 1016.8
20260508034513 17 330 4.8 6.4 0.00 0.00 0.00 45 1016.7
20260508034014 17 323 3.2 6.4 0.00 0.00 0.00 45 1016.8
20260508033513 17 339 3.2 6.4 0.00 0.00 0.00 46 1016.8
20260508033014 17 3 3.2 4.8 0.00 0.00 0.00 47 1016.8
20260508032513 17 336 3.2 4.8 0.00 0.00 0.00 46 1016.8
20260508032013 17 334 3.2 4.8 0.00 0.00 0.00 48 1016.9
20260508031513 17 2 3.2 4.8 0.00 0.00 0.00 50 1016.9
20260508031013 17 46 1.6 3.2 0.00 0.00 0.00 54 1016.8
20260508030513 17 321 1.6 4.8 0.00 0.00 0.00 56 1016.7
20260508030013 17 334 3.2 4.8 0.00 0.00 0.00 57 1016.7
20260508025513 17 348 4.8 6.4 0.00 0.00 0.00 54 1016.9
20260508025013 17 353 3.2 6.4 0.00 0.00 0.00 58 1016.8
20260508024513 17 292 1.6 6.4 0.00 0.00 0.00 57 1016.8
20260508024013 17 278 3.2 3.2 0.00 0.00 0.00 55 1016.9
20260508023513 17 287 1.6 3.2 0.00 0.00 0.00 54 1016.9
20260508023013 17 346 1.6 4.8 0.00 0.00 0.00 55 1016.9
20260508021512 17 0 0.0 0.0 0.00 0.00 0.00 55 1016.9
20260508020513 17 0 0.0 0.0 0.00 0.00 0.00 54 1017.0
20260508020013 17 0 0.0 0.0 0.00 0.00 0.00 55 1016.9
20260508015513 17 0 0.0 0.0 0.00 0.00 0.00 57 1016.9
20260508015013 17 0 0.0 0.0 0.00 0.00 0.00 62 1016.8
20260508014513 17 0 0.0 0.0 0.00 0.00 0.00 63 1017.0
20260508014013 17 0 0.0 0.0 0.00 0.00 0.00 63 1017.2
20260508013513 17 0 0.0 0.0 0.00 0.00 0.00 63 1017.1
20260508013013 17 0 0.0 0.0 0.00 0.00 0.00 63 1017.1
20260508012513 17 0 0.0 0.0 0.00 0.00 0.00 64 1017.3
20260508012013 17 0 0.0 0.0 0.00 0.00 0.00 64 1017.3
20260508011516 17 0 0.0 0.0 0.00 0.00 0.00 64 1017.5
20260508011013 17 0 0.0 0.0 0.00 0.00 0.00 64 1017.5
20260508010513 17 0 0.0 0.0 0.00 0.00 0.00 64 1017.5
20260508010013 17 0 0.0 0.0 0.00 0.00 0.00 64 1017.6
20260508005013 17 307 1.6 3.2 0.00 0.00 0.00 64 1017.5
20260508004513 17 341 1.6 4.8 0.00 0.00 0.00 64 1017.7
20260508004013 17 1 1.6 4.8 0.00 0.00 0.00 63 1017.6
20260508003513 17 43 1.6 4.8 0.00 0.00 0.00 63 1017.6
20260508003013 17 345 3.2 6.4 0.00 0.00 0.00 63 1017.6
20260508002513 17 332 3.2 6.4 0.00 0.00 0.00 63 1017.5
20260508002013 17 343 3.2 6.4 0.00 0.00 0.00 63 1017.6
20260508001516 17 337 3.2 6.4 0.00 0.00 0.00 63 1017.6
20260508000513 17 287 3.2 4.8 0.00 0.00 0.00 62 1017.6
20260508000014 17 321 1.6 3.2 0.00 0.00 0.00 62 1017.6
20260507235516 17 320 1.6 3.2 0.00 0.00 0.00 62 1017.8
20260507235013 17 265 1.6 3.2 0.00 0.00 0.00 61 1018.0
20260507234013 17 224 1.6 3.2 0.00 0.00 0.00 56 1018.1
20260507233512 17 291 1.6 3.2 0.00 0.00 0.00 60 1018.3
20260507233013 17 276 3.2 3.2 0.00 0.00 0.00 55 1018.3
20260507232513 17 270 3.2 3.2 0.00 0.00 0.00 55 1018.2
20260507232013 17 270 1.6 3.2 0.00 0.00 0.00 54 1018.3
20260507231513 17 0 0.0 0.0 0.00 0.00 0.00 54 1018.1
20260507231013 17 0 0.0 0.0 0.00 0.00 0.00 54 1018.1
20260507225513 17 345 1.6 3.2 0.00 0.00 0.00 53 1018.3
20260507225013 17 315 1.6 3.2 0.00 0.00 0.00 53 1018.4
20260507224013 17 304 3.2 3.2 0.00 0.00 0.00 52 1018.4
20260507221513 17 264 3.2 3.2 0.00 0.00 0.00 47 1018.7
20260507221012 17 269 1.6 3.2 0.00 0.00 0.00 46 1018.6
20260507220513 17 270 0.0 3.2 0.00 0.00 0.00 46 1018.7
20260507215513 18 0 0.0 0.0 0.00 0.00 0.00 45 1018.7
20260507215013 18 0 0.0 0.0 0.00 0.00 0.00 45 1018.8
20260507214512 18 0 0.0 0.0 0.00 0.00 0.00 45 1019.0
20260507214013 18 0 0.0 0.0 0.00 0.00 0.00 44 1018.9
20260507213512 18 135 0.0 3.2 0.00 0.00 0.00 44 1018.9
20260507213013 18 135 1.6 3.2 0.00 0.00 0.00 44 1019.1
20260507212513 18 157 3.2 3.2 0.00 0.00 0.00 44 1019.1
20260507211012 18 125 3.2 3.2 0.00 0.00 0.00 44 1019.1
20260507210513 17 145 4.8 6.4 0.00 0.00 0.00 44 1019.0
20260507210016 17 156 4.8 6.4 0.00 0.00 0.00 45 1018.9
20260507205513 17 118 4.8 6.4 0.00 0.00 0.00 44 1018.9
20260507205012 17 100 4.8 6.4 0.00 0.00 0.00 45 1019.0
20260507204513 17 102 4.8 6.4 0.00 0.00 0.00 45 1018.9
20260507204013 17 110 6.4 6.4 0.00 0.00 0.00 45 1019.0
20260507203013 17 128 6.4 8.0 0.00 0.00 0.00 45 1019.0
20260507202513 17 117 6.4 8.0 0.00 0.00 0.00 46 1019.0
20260507202013 17 124 6.4 9.7 0.00 0.00 0.00 46 1019.1
20260507201513 17 125 8.0 11.3 0.00 0.00 0.00 46 1019.0
20260507201013 17 125 9.7 12.9 0.00 0.00 0.00 46 1019.1
20260507200513 17 109 8.0 12.9 0.00 0.00 0.00 46 1018.9
20260507195514 17 101 4.8 6.4 0.00 0.00 0.00 45 1018.9
20260507194513 17 63 4.8 6.4 0.00 0.00 0.00 45 1018.7
20260507194013 17 59 4.8 6.4 0.00 0.00 0.00 45 1018.8
20260507193012 17 82 6.4 8.0 0.00 0.00 0.00 44 1018.9
20260507192513 17 89 6.4 8.0 0.00 0.00 0.00 44 1019.0
20260507192012 17 80 6.4 8.0 0.00 0.00 0.00 44 1018.8
20260507191514 17 71 6.4 8.0 0.00 0.00 0.00 44 1018.8
20260507191013 17 89 6.4 6.4 0.00 0.00 0.00 44 1018.7
20260507190512 18 90 4.8 6.4 0.00 0.00 0.00 44 1018.7
20260507190014 18 96 4.8 6.4 0.00 0.00 0.00 44 1018.9
20260507185512 18 113 4.8 6.4 0.00 0.00 0.00 43 1018.9
20260507185013 18 107 4.8 6.4 0.00 0.00 0.00 44 1019.0
20260507184013 18 143 3.2 4.8 0.00 0.00 0.00 45 1019.0
20260507183513 18 155 1.6 3.2 0.00 0.00 0.00 45 1018.8
20260507183012 18 118 1.6 6.4 0.00 0.00 0.00 46 1018.8
20260507182513 18 108 4.8 9.7 0.00 0.00 0.00 45 1018.8
20260507182013 18 98 8.0 9.7 0.00 0.00 0.00 45 1018.7
20260507181513 18 98 6.4 8.0 0.00 0.00 0.00 46 1018.6
20260507181012 18 111 6.4 6.4 0.00 0.00 0.00 47 1018.5
20260507180513 18 129 6.4 6.4 0.00 0.00 0.00 47 1018.7
20260507180013 18 123 6.4 8.0 0.00 0.00 0.00 48 1018.6
20260507175513 18 92 8.0 8.0 0.00 0.00 0.00 48 1018.6
20260507174513 18 78 8.0 8.0 0.00 0.00 0.00 48 1018.7
20260507174013 18 42 8.0 8.0 0.00 0.00 0.00 48 1018.6
20260507173013 18 99 6.4 9.7 0.00 0.00 0.00 47 1018.9
20260507172512 18 107 8.0 11.3 0.00 0.00 0.00 46 1018.7
20260507172013 19 101 9.7 11.3 0.00 0.00 0.00 46 1018.7
20260507171013 19 171 8.0 11.3 0.00 0.00 0.00 44 1018.5
20260507170512 19 95 9.7 12.9 0.00 0.00 0.00 44 1018.5
20260507170016 19 98 8.0 12.9 0.00 0.00 0.00 43 1018.4
20260507165513 20 111 9.7 12.9 0.00 0.00 0.00 43 1018.4
20260507165012 20 110 11.3 12.9 0.00 0.00 0.00 43 1018.2
20260507164512 20 97 11.3 16.1 0.00 0.00 0.00 43 1018.0
20260507164013 20 68 12.9 16.1 0.00 0.00 0.00 42 1018.2
20260507163512 20 41 11.3 17.7 0.00 0.00 0.00 42 1018.2
20260507163013 21 97 9.7 17.7 0.00 0.00 0.00 39 1018.3
20260507162512 21 132 8.0 12.9 0.00 0.00 0.00 36 1018.3
20260507162012 21 178 4.8 8.0 0.00 0.00 0.00 27 1018.4
20260507161513 21 205 4.8 8.0 0.00 0.00 0.00 24 1018.3
20260507161012 21 259 4.8 4.8 0.00 0.00 0.00 25 1018.4
20260507160513 21 250 4.8 6.4 0.00 0.00 0.00 25 1018.5
20260507155512 21 182 6.4 8.0 0.00 0.00 0.00 23 1018.3
20260507155013 21 210 8.0 12.9 0.00 0.00 0.00 23 1018.4
20260507154512 22 215 8.0 12.9 0.00 0.00 0.00 23 1018.4
20260507154012 22 204 8.0 11.3 0.00 0.00 0.00 23 1018.6
20260507153512 22 257 8.0 11.3 0.00 0.00 0.00 24 1018.5
20260507152013 22 200 9.7 14.5 0.00 0.00 0.00 23 1018.7
20260507151512 22 196 12.9 17.7 0.00 0.00 0.00 24 1018.7
20260507151012 22 221 12.9 17.7 0.00 0.00 0.00 22 1018.7
20260507150512 22 254 9.7 12.9 0.00 0.00 0.00 23 1018.8
20260507150012 22 255 8.0 12.9 0.00 0.00 0.00 23 1018.7
20260507145013 22 182 9.7 14.5 0.00 0.00 0.00 23 1018.5
20260507144512 22 227 9.7 14.5 0.00 0.00 0.00 23 1018.6
20260507144016 22 268 8.0 9.7 0.00 0.00 0.00 22 1018.7
20260507143012 22 237 9.7 16.1 0.00 0.00 0.00 23 1018.6
20260507142513 23 257 11.3 16.1 0.00 0.00 0.00 22 1018.6
20260507142012 23 265 12.9 17.7 0.00 0.00 0.00 22 1018.5
20260507141012 23 217 12.9 17.7 0.00 0.00 0.00 22 1018.3
20260507140513 23 222 9.7 11.3 0.00 0.00 0.00 22 1018.2
20260507140016 23 192 9.7 12.9 0.00 0.00 0.00 22 1018.2
20260507134512 24 221 9.7 14.5 0.00 0.00 0.00 17 1017.9
20260507134012 23 235 9.7 12.9 0.00 0.00 0.00 17 1017.9
20260507133512 23 154 11.3 12.9 0.00 0.00 0.00 22 1017.8
20260507133012 23 156 11.3 17.7 0.00 0.00 0.00 22 1017.9
20260507132513 23 165 11.3 17.7 0.00 0.00 0.00 23 1017.8
20260507132012 23 173 11.3 16.1 0.00 0.00 0.00 23 1017.9
20260507131512 23 186 11.3 14.5 0.00 0.00 0.00 23 1017.9
20260507131013 23 164 11.3 14.5 0.00 0.00 0.00 23 1017.9
20260507130512 23 152 9.7 14.5 0.00 0.00 0.00 26 1018.0
20260507130013 22 241 8.0 11.3 0.00 0.00 0.00 32 1018.1
20260507125012 22 201 9.7 12.9 0.00 0.00 0.00 32 1018.3
20260507124512 23 179 9.7 12.9 0.00 0.00 0.00 31 1018.3
20260507123516 23 202 12.9 16.1 0.00 0.00 0.00 28 1018.3
20260507122512 24 202 11.3 16.1 0.00 0.00 0.00 29 1018.5
20260507121512 24 204 12.9 17.7 0.00 0.00 0.00 28 1018.5
20260507121014 24 209 12.9 17.7 0.00 0.00 0.00 22 1018.4
20260507120512 24 238 12.9 17.7 0.00 0.00 0.00 24 1018.5
20260507120012 24 233 12.9 17.7 0.00 0.00 0.00 22 1018.4